Lexington Weather

Lexington, Massachusetts, USA

38°F
1/28/2023 10:13pm 
  • Lexington Conditions: Clear
  • Temperature: 38.1°F / 3.4°CColder 0.7°F than last hour.
  • Dew Point: 27.9°FIncreased 0.6°Fsince last hour.
  • Relative Humidity: 66%Increased 3.0% since last hour.
  • Wind: Calm, 10-min avg: Calm, gust: None
  • Barometer: 30.25 in Steady
  • Visibility: 10 miles
  • Rain Today: 0.00 in
  •   

Regional Weather Roundup
for Boston, MA

        
000
ASUS41 KBOX 281210
RWRBOX

REGIONAL WEATHER ROUNDUP
NATIONAL WEATHER SERVICE BOSTON/NORTON MA
700 AM EST SAT JAN 28 2023

NOTE:  "FAIR" INDICATES FEW OR NO CLOUDS BELOW 12,000 FEET WITH NO 
SIGNIFICANT WEATHER AND/OR OBSTRUCTIONS TO VISIBILITY.

MAZALL-281300-
EASTERN MASSACHUSETTS
  
CITY           SKY/WX    TMP DP  RH WIND       PRES   REMARKS
BOSTON         CLOUDY    36  25  64 S13       30.16F WCI  27          
6HR MIN TEMP:  30; 6HR MAX TEMP:  36;                                

BEVERLY        CLOUDY    35  24  64 S9        30.14F WCI  28          
LAWRENCE       CLOUDY    34  23  64 S7        30.14F WCI  28          
BEDFORD        CLOUDY    35  24  64 S12       30.13S WCI  27          
NORWOOD        CLOUDY    35  25  66 S8        30.16F WCI  29          
MARSHFIELD     CLOUDY    34  27  75 SW9       30.19S WCI  26          
PLYMOUTH       CLOUDY    34  26  72 S6        30.19S WCI  29          
TAUNTON          N/A    N/A N/A N/A MISG      30.18S                  
NEW BEDFORD    CLOUDY    33  27  78 CALM      30.20R                  
$$

MAZALL-281300-
CAPE COD AND THE ISLANDS
  
CITY           SKY/WX    TMP DP  RH WIND       PRES   REMARKS
FALMOUTH       MOCLDY    28  23  80 S7        30.21S WCI  21          
HYANNIS        MOCLDY    36  31  82 S7        30.20S WCI  30          
CHATHAM        CLEAR     39  28  64 SW7       30.22S                  
PROVINCETOWN   CLOUDY    38  28  67 SW15G21   30.21R WCI  29          
NANTUCKET      CLEAR     35  27  72 SW7       30.24R WCI  29          
MARTHAS VNYRD  MOCLDY    39  29  67 SW10      30.22R                  
$$
 
MAZALL-281300-
CENTRAL AND WESTERN MASSACHUSETTS
  
CITY           SKY/WX    TMP DP  RH WIND       PRES   REMARKS
WORCESTER      CLOUDY    32  22  66 SW14      30.09R WCI  22          
6HR MIN TEMP:  27; 6HR MAX TEMP:  32;                                

FITCHBURG      CLOUDY    31  23  72 S7        30.11F WCI  24          
ORANGE         CLOUDY    33  20  58 S8G20     30.10R WCI  26          
SPRINGFIELD    CLOUDY    34  23  64 S10       30.11R WCI  26          
WESTFIELD      CLOUDY    32  21  64 S9        30.13R WCI  24          
NORTH ADAMS    CLOUDY    32  19  58 VRB3      30.06R                  
PITTSFIELD     CLOUDY    32  18  56 S12G22    30.04R WCI  23          
$$
 
RIZALL-281300-
RHODE ISLAND
  
CITY           SKY/WX    TMP DP  RH WIND       PRES   REMARKS
PROVIDENCE     CLOUDY    32  26  78 S7        30.19R WCI  26          
6HR MIN TEMP:  24; 6HR MAX TEMP:  32;                                

NEWPORT        CLOUDY    40  27  59 S10G20    30.19R                  
SMITHFIELD     CLOUDY    33  24  69 VRB6      30.15S WCI  28          
WESTERLY       CLOUDY    41  28  60 SW10G20   30.19S                  
$$
 
CTZALL-281300-
CONNECTICUT
  
CITY           SKY/WX    TMP DP  RH WIND       PRES   REMARKS
BRADLEY INTL   MOCLDY    35  23  61 S10       30.15R WCI  27          
6HR MIN TEMP:  29; 6HR MAX TEMP:  36;                                

HARTFORD       MOCLDY    37  25  61 SW6       30.17R                  
BRIDGEPORT     MOCLDY    40  31  70 SW13      30.18R                  
DANBURY        CLOUDY    37  21  52 SW9       30.15R WCI  30          
GROTON         MOCLDY    42  30  62 SW10      30.19R                  
NEW HAVEN      MOCLDY    42  31  64 SW12      30.17S                  
CHESTER        FAIR      37  30  75 S8G14     30.17R WCI  31          
MERIDEN        PTCLDY    35  25  66 S6        30.17R WCI  30          
WILLIMANTIC    CLOUDY    35  25  66 S6        30.17R WCI  30          
OXFORD         CLOUDY    33  24  69 SW9G16    30.14R WCI  25          
$$

MEZ002-015-021-024-NHZ003-005-008-011-012-014-VTZ005-008-281300-
NORTHERN NEW ENGLAND
  
CITY           SKY/WX    TMP DP  RH WIND       PRES   REMARKS
PORTLAND ME    CLOUDY    32  23  69 S10       30.12R WCI  24          
6HR MIN TEMP:  18; 6HR MAX TEMP:  32;                                

BANGOR ME      MOCLDY    27  24  89 S5        30.11R WCI  22          
CONCORD NH     CLOUDY    28  21  75 SE9       30.10R WCI  19          
MANCHESTER NH  CLOUDY    30  23  75 S6        30.10S WCI  24          
NASHUA NH      CLOUDY    27  27 100 CALM      30.13S                  
PORTSMOUTH NH  MOCLDY    31  24  75 S8        30.12F WCI  24          
JAFFREY NH     CLOUDY    31  20  63 S10       30.05S WCI  22          
KEENE NH       CLOUDY    28  23  81 SW8       30.08S WCI  20          
BURLINGTON VT  CLOUDY    32  23  69 S21G28    29.95S WCI  20          
MT. WASHINGTON SNOW      10  10 100 W55G61      N/A  VSB 1/16WCI -17  
$$

NYZ052-076-281300-
EASTERN NEW YORK
  
CITY           SKY/WX    TMP DP  RH WIND       PRES   REMARKS
ALBANY         CLOUDY    33  20  58 SE14G22   30.05R WCI  23          
6HR MIN TEMP:  30; 6HR MAX TEMP:  33; 6HR PCP: TRACE;                

NEW YORK CITY  MOCLDY    39  21  48 SW12G20   30.18S WCI  32          
6HR MIN TEMP:  36; 6HR MAX TEMP:  39;                                

$$
 
ANZALL-281300-
MARINE OBSERVATIONS
  
STATION/POSITION TIME  TEMP    WIND        PRES    VSBY  WAVE
                       AIR SEA DIR/SP/G                  HT/PER
                 (UTC) (F)     (DEG/KT/KT) (MB)    (MI)  (FT/S)
BOSTON BUOY      1140      42                N/A           3/ 9
BUZZARDS BAY     1100   41     220/ 22/ 24 1023.2R
NANTUCKET SOUND  1150   42 42  210/ 12/ 16 1023.2S         1/ 3
MASS BAY-STELLWA 1004   37 42  210/ 16/ 17 1020.3F  1 7/8  3/ 4
ISLE OF SHOALS   1100   37     210/ 24/ 26 1019.9R
S OF BLOCK IS    1156      44                N/A           5/ 5
$$

......................KEY.........................
  SKY/WX - SKY CONDITION/PRESENT WEATHER
  TMP    - TEMPERATURE IN FAHRENHEIT
  DWPT   - DEWPOINT IN FAHRENHEIT
  RH     - RELATIVE HUMIDITY IN PERCENT
  WIND   - DIRECTION AND SPEED IN MPH
  PRES   - MEAN SEA LEVEL PRESSURE IN INCHES OF HG
  WCI    - WIND CHILL INDEX
  VSB    - VISIBILITY IN MILES
  HX     - HEAT INDEX
  TC     - TEMPERATURE IN CELSIUS
  VRB    - VARIABLE WIND DIRECTION
  N/A    - NOT AVAILABLE
  
      

Other recent Regional Weather Roundups

Sat Jan 28, 9:10pm EST

Sat Jan 28, 8:10pm EST

Sat Jan 28, 7:10pm EST

Sat Jan 28, 6:10pm EST

Sat Jan 28, 5:10pm EST

Sat Jan 28, 4:10pm EST

Sat Jan 28, 3:10pm EST

Sat Jan 28, 2:10pm EST

Sat Jan 28, 1:10pm EST

Sat Jan 28, 12:10pm EST

Sat Jan 28, 11:10am EST

Sat Jan 28, 10:10am EST

Sat Jan 28, 9:10am EST

Sat Jan 28, 8:10am EST

Sat Jan 28, 6:10am EST

Sat Jan 28, 5:10am EST

Sat Jan 28, 4:10am EST

Sat Jan 28, 3:10am EST

Sat Jan 28, 2:10am EST

Sat Jan 28, 1:10am EST

Sat Jan 28, 12:10am EST

Fri Jan 27, 11:10pm EST

Fri Jan 27, 10:10pm EST

Fri Jan 27, 9:10pm EST

Fri Jan 27, 8:10pm EST

Fri Jan 27, 7:10pm EST

Fri Jan 27, 6:10pm EST

Fri Jan 27, 5:10pm EST

Fri Jan 27, 4:10pm EST

Fri Jan 27, 3:10pm EST

Fri Jan 27, 2:10pm EST

Fri Jan 27, 1:10pm EST

Fri Jan 27, 12:10pm EST

Fri Jan 27, 11:10am EST

Fri Jan 27, 10:10am EST

Fri Jan 27, 9:10am EST

Fri Jan 27, 8:10am EST

Fri Jan 27, 7:10am EST

Fri Jan 27, 6:10am EST

Fri Jan 27, 5:10am EST

Fri Jan 27, 4:10am EST

Fri Jan 27, 3:10am EST

Fri Jan 27, 2:10am EST

Fri Jan 27, 1:10am EST

Fri Jan 27, 12:10am EST

Thu Jan 26, 11:10pm EST

Thu Jan 26, 10:10pm EST

Thu Jan 26, 9:10pm EST

Thu Jan 26, 8:10pm EST

Thu Jan 26, 7:10pm EST

Thu Jan 26, 6:10pm EST

Thu Jan 26, 5:10pm EST

Thu Jan 26, 4:10pm EST

Thu Jan 26, 3:10pm EST

Thu Jan 26, 2:10pm EST

Thu Jan 26, 1:10pm EST

Thu Jan 26, 12:10pm EST

Thu Jan 26, 11:10am EST

Thu Jan 26, 10:10am EST

Thu Jan 26, 9:10am EST

Thu Jan 26, 8:10am EST

Thu Jan 26, 7:10am EST

Thu Jan 26, 6:10am EST

Thu Jan 26, 5:10am EST

Thu Jan 26, 4:10am EST

Thu Jan 26, 3:10am EST

Thu Jan 26, 2:10am EST

Thu Jan 26, 1:10am EST

Thu Jan 26, 12:10am EST

Wed Jan 25, 11:10pm EST

Wed Jan 25, 10:10pm EST

Wed Jan 25, 9:10pm EST

Wed Jan 25, 8:10pm EST

Wed Jan 25, 7:10pm EST

Wed Jan 25, 6:10pm EST

Wed Jan 25, 5:10pm EST

Wed Jan 25, 4:10pm EST

Wed Jan 25, 3:10pm EST

Wed Jan 25, 2:10pm EST

Wed Jan 25, 1:10pm EST

Wed Jan 25, 12:10pm EST

Wed Jan 25, 11:10am EST

Wed Jan 25, 10:10am EST

Wed Jan 25, 9:10am EST

Wed Jan 25, 8:10am EST

Wed Jan 25, 7:10am EST

Wed Jan 25, 6:10am EST

Wed Jan 25, 5:10am EST

Wed Jan 25, 4:10am EST

Wed Jan 25, 3:10am EST

Wed Jan 25, 2:10am EST

Wed Jan 25, 1:10am EST

Wed Jan 25, 12:10am EST

Tue Jan 24, 11:10pm EST

Tue Jan 24, 10:10pm EST

Tue Jan 24, 9:10pm EST

Tue Jan 24, 8:10pm EST

Tue Jan 24, 7:10pm EST

Tue Jan 24, 6:10pm EST

Tue Jan 24, 5:10pm EST

Tue Jan 24, 4:10pm EST

Tue Jan 24, 3:10pm EST

Tue Jan 24, 2:10pm EST

Tue Jan 24, 1:10pm EST

Tue Jan 24, 12:10pm EST

Tue Jan 24, 11:10am EST

Tue Jan 24, 10:10am EST

Tue Jan 24, 9:10am EST

Tue Jan 24, 8:10am EST

Tue Jan 24, 7:10am EST

Tue Jan 24, 6:10am EST

Tue Jan 24, 5:10am EST

Tue Jan 24, 4:10am EST

Tue Jan 24, 3:10am EST

Tue Jan 24, 2:10am EST

Tue Jan 24, 1:10am EST

Tue Jan 24, 12:10am EST

Mon Jan 23, 11:10pm EST

Mon Jan 23, 10:10pm EST

Mon Jan 23, 9:10pm EST

Mon Jan 23, 8:10pm EST

Mon Jan 23, 7:10pm EST

Mon Jan 23, 6:10pm EST

Mon Jan 23, 5:10pm EST

Mon Jan 23, 4:10pm EST

Mon Jan 23, 3:10pm EST

Mon Jan 23, 2:10pm EST

Mon Jan 23, 1:10pm EST

Mon Jan 23, 12:10pm EST

Mon Jan 23, 11:10am EST

Mon Jan 23, 10:10am EST

Mon Jan 23, 9:10am EST

Mon Jan 23, 8:10am EST

Mon Jan 23, 7:10am EST

Mon Jan 23, 6:10am EST

Mon Jan 23, 5:10am EST

Mon Jan 23, 4:10am EST

Mon Jan 23, 3:10am EST

Mon Jan 23, 2:10am EST

Mon Jan 23, 1:10am EST

Mon Jan 23, 12:10am EST

Sun Jan 22, 11:10pm EST

Sun Jan 22, 10:10pm EST

Sun Jan 22, 9:10pm EST

Sun Jan 22, 8:10pm EST

Sun Jan 22, 7:10pm EST

Sun Jan 22, 6:10pm EST

Sun Jan 22, 5:10pm EST

Sun Jan 22, 4:10pm EST

Sun Jan 22, 3:10pm EST

Sun Jan 22, 2:10pm EST

Sun Jan 22, 1:10pm EST

Sun Jan 22, 12:10pm EST

Sun Jan 22, 11:10am EST

Sun Jan 22, 10:10am EST

Sun Jan 22, 9:10am EST

Sun Jan 22, 8:10am EST

Sun Jan 22, 7:10am EST

Sun Jan 22, 6:10am EST

Sun Jan 22, 5:10am EST

Sun Jan 22, 4:10am EST

Sun Jan 22, 3:10am EST

Sun Jan 22, 2:10am EST

Sun Jan 22, 1:10am EST

Sun Jan 22, 12:10am EST

Sat Jan 21, 11:10pm EST

Sat Jan 21, 10:10pm EST